World > North America > United States > Texas > Theon  

Theon, TX Hourly Weather Updates

Feedback E-mail the Weather

Quick Clicks

Theon, TX Weather Maps

°F °C°F °C
Theon Weather Map
UTC Time: 4/17/2024, 00:00
Your Time:

Theon, TX Regional Weather

Expires:202404170000;;865670
ASUS44 KSJT 162310
RWRSJT
WEST CENTRAL TEXAS REGIONAL WEATHER ROUNDUP
NATIONAL WEATHER SERVICE SAN ANGELO TX
600 PM CDT TUE APR 16 2024

NOTE: "FAIR" INDICATES FEW OR NO CLOUDS BELOW 12,000 FEET WITH NO
SIGNIFICANT WEATHER AND/OR OBSTRUCTIONS TO VISIBILITY.


TXZ145-158-159-173-191-192-194-205-207-220-223-170000-
CENTRAL AND SOUTH CENTRAL TEXAS
  
CITY           SKY/WX    TMP DP  RH WIND       PRES   REMARKS
AUSTIN/BERGSTM CLOUDY    76  72  87 S9        29.82S TC  24           
WACO           PTSUNNY   78  71  79 S15       29.80S TC  26           
HILLSBORO      PTSUNNY   82  73  74 S13       29.79F TC  28           
TEMPLE         CLOUDY    78  72  81 S15       29.82S TC  26           
KILLEEN-GRAY   MOSUNNY   81  71  70 SE10      29.80S TC  27           
FORT HOOD      MOSUNNY   82  72  70 S12       29.81S TC  28           
GEORGETOWN     PTSUNNY   79  70  74 SE10      29.83S TC  26           
LAGO VISTA     CLOUDY    78  70  77 SE9       29.84S TC  26           
SAN MARCOS     CLOUDY    75  74  96 SE8       29.84S FOG     TC  24   
NEW BRAUNFELS  CLOUDY    77  74  90 SE9       29.81S FOG     TC  25   
RANDOLPH AFB   CLOUDY    78  72  81 SE7       29.79S TC  26           
SAN ANTONIO    CLOUDY    79  72  79 SE10      29.82S TC  26           
STINSON        PTSUNNY   79  72  79 SE7       29.79F TC  26           
PLEASANTON     NOT AVBL                                               
LA GRANGE      NOT AVBL                                               
GIDDINGS       CLOUDY    79  69  73 CALM      29.84S TC  26           
$$


SKY/WX - Weather  TMP - Temperature  DP - Dew Point  RH - Humidity
WIND - Wind Direction/Speed PRES - Barometric Pressure VSB - Visibility
WCI - Wind Chill Index E13G22 Wind - East Wind 13 mph/Gusts of 22 mph

Trending Headlines

Trending Entertainment Headlines

Theon Radar Loop

Use the map search tool if you want to place a location marker on the radar map...

Theon Quick Facts

National Two Day Weather Forecast


E-mail the Theon Weather Forecast

Voice your opinion or tell us about page issues...